Simultaneous Nadir Overpasses (SNOs) Predictions

Prediction of SNOs between FY3D and NOAA-19 Satellite Orbit:

Table of predicted SNOs for the next 14.0 days since TLE Epoch: 8/26/2023
Index Date (FY3D) Time (FY3D) Lat,Lon (FY3D) SZA (FY3D ) Date (NOAA-19) Time (NOAA-19) Lat,Lon (NOAA-19) SZA (NOAA-19 ) Distance(km) Time Diff (sec)
1 09/07/2023 17:51:10 -76.39, 85.19 109.56 09/07/2023 17:49:58 -76.43, 85.19 109.51 4.04 72
2 09/07/2023 18:41:57 76.44,-107.67 70.51 09/07/2023 18:40:51 76.43,-107.52 70.51 3.91 66
3 09/07/2023 19:32:42 -76.42, 59.70 109.50 09/07/2023 19:31:57 -76.42, 59.67 109.49 0.83 45
4 09/07/2023 20:23:28 76.42,-132.98 70.52 09/07/2023 20:22:50 76.43,-133.03 70.53 1.64 38
5 09/07/2023 21:14:14 -76.45, 34.22 109.44 09/07/2023 21:13:55 -76.46, 34.33 109.43 3.19 19
6 09/07/2023 22:05:00 76.45,-158.46 70.57 09/07/2023 22:04:48 76.46,-158.38 70.59 3.03 12
7 09/07/2023 22:55:46 -76.48, 8.74 109.39 09/07/2023 22:55:54 -76.46, 8.81 109.41 2.94 8
8 09/07/2023 23:46:32 76.47, 176.05 70.63 09/07/2023 23:46:47 76.46, 176.11 70.61 2.20 15
9 09/08/2023 00:37:17 -76.46, -16.58 109.38 09/08/2023 00:37:53 -76.45, -16.70 109.39 3.45 36
10 09/08/2023 01:28:03 76.46, 150.74 70.64 09/08/2023 01:28:46 76.45, 150.59 70.63 3.89 43
11 09/08/2023 02:18:49 -76.49, -42.06 109.32 09/08/2023 02:19:51 -76.49, -42.05 109.33 0.33 62
12 09/08/2023 03:09:35 76.48, 125.25 70.69 09/08/2023 03:10:44 76.49, 125.24 70.69 0.67 69



Historial Predications of SNOs between FY3D and NOAA-19
